Regional Weather Roundup
Issued by NWS

Home | Current Version | Previous Version | Text Only | Print | Product List | Glossary Off
Versions: 1 2 3 4 5 6 7 8 9 10 11 12 13 14 15 16 17 18 19 20 21 22 23 24 25 26 27 28 29 30 31 32 33 34 35 36 37 38 39 40 41 42 43 44 45 46 47 48 49 50

000
ASUS45 KPSR 181010
RWRAZ

ARIZONA HOURLY REGIONAL WEATHER ROUNDUP
NATIONAL WEATHER SERVICE PHOENIX AZ
300 AM MST MON DEC 18 2017

NOTE: FAIR INDICATES FEW OR NO CLOUDS BELOW 12,000 FEET WITH NO
SIGNIFICANT WEATHER AND/OR OBSTRUCTIONS TO VISIBILITY.

AZZ001>003-036-181100-
NORTHWEST ARIZONA

CITY           SKY/WX    TMP DP  RH WIND       PRES   REMARKS
BULLHEAD CITY  CLEAR     54  21  28 N23G35    30.11R
KINGMAN        CLEAR     33  17  51 E13       30.15R WCI  24
$$

AZZ004>008-015-016-018-181100-
NORTH CENTRAL ARIZONA

CITY           SKY/WX    TMP DP  RH WIND       PRES   REMARKS
GRAND CANYON   PTCLDY    10   0  63 NE5       30.16R WCI   2
WILLIAMS       PTCLDY    18   9  68 CALM      30.12R
PRESCOTT       CLEAR     29  16  58 CALM      30.12R
FLAGSTAFF      PTCLDY    16   8  71 CALM      30.11R
PAYSON         CLEAR     34  27  75 CALM      30.08R
PAGE           PTCLDY    31  16  54 CALM      30.17R
$$

AZZ009>014-017-181100-
NORTHEAST ARIZONA

CITY           SKY/WX    TMP DP  RH WIND       PRES   REMARKS
WINSLOW        MOCLDY    19   6  57 SW7       30.13R WCI  10
SAINT JOHNS    PTCLDY    22  20  92 CALM      30.09S
WINDOW ROCK    PTCLDY    14   0  53 E3        30.14R
SHOW LOW       CLEAR     25  16  68 CALM      30.11S
$$

AZZ540-542>544-546-548-181100-
GREATER PHOENIX AREA

CITY           SKY/WX    TMP DP  RH WIND       PRES   REMARKS
PHOENIX        PTCLDY    50  45  83 CALM      30.02S
BUCKEYE        CLEAR     46  28  49 N9        30.05R
LUKE AFB       CLEAR     47  37  69 NW8       30.02R
DEER VALLEY    CLEAR     49  41  74 CALM      30.03R
SCOTTSDALE     CLEAR     49  42  77 W3        30.04R
MESA-GATEWAY   CLEAR     43  39  87 CALM      30.04R
$$

AZZ539-553-181100-
SOUTHWEST MARICOPA COUNTY AND PINAL COUNTY

CITY           SKY/WX    TMP DP  RH WIND       PRES   REMARKS
CASA GRANDE    NOT AVBL
$$

AZZ503-504-507>509-181100-
SOUTHEAST ARIZONA

CITY           SKY/WX    TMP DP  RH WIND       PRES   REMARKS
TUCSON         CLOUDY    48  42  80 CALM      30.05R
DAVIS-MONTHAN  MOCLDY    46  40  80 SE5       30.03R
NOGALES        PTCLDY    40  39  97 MISG      30.03S
SIERRA VISTA   CLOUDY    39  37  93 SE9       30.06R WCI  33
DOUGLAS        CLOUDY    41  37  86 E10       30.06R
SAFFORD        CLOUDY    47  40  76 SE8       30.06R
$$

AZZ532-181100-
SOUTHWEST ARIZONA

CITY           SKY/WX    TMP DP  RH WIND       PRES   REMARKS
YUMA           CLEAR     55  18  23 N7        30.07R
$$

CAZ041-043-047-048-061-525>527-560>570-181100-
SOUTHERN CALIFORNIA

CITY           SKY/WX    TMP DP  RH WIND       PRES   REMARKS
DOWNTOWN L.A.  CLEAR     55  21  26 CALM      30.08R
L.A. AIRPORT   CLEAR     56  22  26 E3        30.09R
SAN DIEGO      CLEAR     54  27  35 CALM      30.09R
BURBANK        CLEAR     51  26  37 NE3       30.08R
ONTARIO        CLEAR     47  20  34 N5        30.09R
RIVERSIDE      CLEAR     50  21  32 SE3       30.10R
PALM SPRINGS   CLEAR     56  19  23 W6        30.12R
EL CENTRO NAS  CLEAR     41  20  43 W7        30.11R
IMPERIAL       CLEAR     44  24  45 W6        30.08R
BLYTHE         CLEAR     50  16  25 NW7       30.09R
NEEDLES        CLEAR     53  21  28 N8        30.12R
$$

NVZ020-UTZ003-181100-
SOUTHERN NEVADA-UTAH

CITY           SKY/WX    TMP DP  RH WIND       PRES   REMARKS
LAS VEGAS      PTCLDY    43  16  33 CALM      30.18R
SALT LAKE CITY PTCLDY    28  22  78 SE5       30.28R WCI  23
$$

NMZ009-TXZ055-181100-
NEW MEXICO-WEST TEXAS

CITY           SKY/WX    TMP DP  RH WIND       PRES   REMARKS
ALBUQUERQUE    CLOUDY    35  29  78 N7        30.12F WCI  29
EL PASO        LGT RAIN  45  44  97 N8        30.06R
$$


........................KEY........................
SKY/WX - SKY CONDITION/WEATHER
TMP    - TEMPERATURE IN FAHRENHEIT
DP     - DEW POINT IN FAHRENHEIT
RH     - RELATIVE HUMIDITY IN PERCENT
WIND   - DIRECTION AND SPEED IN MILES PER HOUR (MPH)
VRB    - VARIABLE WIND DIRECTION
PRES   - MEAN SEA LEVEL PRESSURE IN INCHES OF MERCURY
         F - FALLING PRESSURE   R - RISING PRESSURE
         S - STEADY PRESSURE
VSB    - VISIBILITY IN MILES
HX     - HEAT INDEX IN FAHRENHEIT
WCI    - WIND CHILL INDEX IN FAHRENHEIT
TC     - TEMPERATURE IN CELSIUS WHICH IS ALSO KNOWN AS
         TEMPERATURE IN CENTIGRADE
AFB    - AIR FORCE BASE
         LUKE AFB IS LUKE AIR FORCE BASE
         DAVIS-MONTHAN IS DAVIS-MONTHAN AIR FORCE BASE
NAS    - NAVAL AIR STATION
         EL CENTRO NAS IS EL CENTRO NAVAL AIR STATION
N/A    - NOT AVAILABLE




USA.gov is the U.S. government's official web portal to all federal, state and local government web resources and services.